TimeEDT,TemperatureF,Dew PointF,Humidity,Sea Level PressureIn,VisibilityMPH,Wind Direction,Wind SpeedMPH,Gust SpeedMPH,PrecipitationIn,Events,Conditions,WindDirDegrees,DateUTC
12:53 AM,55.0,30.9,40,30.34,10.0,Calm,Calm,-,N/A,,Clear,0,2013-04-27 04:53:00
1:53 AM,55.0,30.9,40,30.33,10.0,Calm,Calm,-,N/A,,Mostly Cloudy,0,2013-04-27 05:53:00
2:53 AM,54.0,30.9,41,30.32,10.0,Calm,Calm,-,N/A,,Overcast,0,2013-04-27 06:53:00
3:53 AM,54.0,30.9,41,30.31,10.0,Calm,Calm,-,N/A,,Overcast,0,2013-04-27 07:53:00
4:53 AM,53.1,32.0,45,30.30,10.0,Calm,Calm,-,N/A,,Overcast,0,2013-04-27 08:53:00
5:53 AM,50.0,39.0,66,30.30,10.0,Calm,Calm,-,N/A,,Overcast,0,2013-04-27 09:53:00
6:53 AM,51.1,36.0,56,30.30,10.0,Calm,Calm,-,N/A,,Overcast,0,2013-04-27 10:53:00
7:53 AM,52.0,39.0,61,30.31,10.0,Calm,Calm,-,N/A,,Overcast,0,2013-04-27 11:53:00
8:53 AM,53.1,39.9,61,30.30,10.0,Calm,Calm,-,N/A,,Overcast,0,2013-04-27 12:53:00
9:53 AM,55.0,42.1,62,30.29,10.0,Calm,Calm,-,N/A,,Overcast,0,2013-04-27 13:53:00
10:53 AM,55.9,44.1,64,30.30,10.0,Calm,Calm,-,N/A,,Overcast,0,2013-04-27 14:53:00
11:53 AM,57.0,45.0,64,30.29,10.0,Calm,Calm,-,N/A,,Overcast,0,2013-04-27 15:53:00
12:53 PM,57.0,44.1,62,30.29,10.0,Calm,Calm,-,N/A,,Overcast,0,2013-04-27 16:53:00
1:53 PM,57.9,44.1,60,30.28,10.0,Calm,Calm,-,N/A,,Overcast,0,2013-04-27 17:53:00
2:53 PM,57.0,46.0,67,30.27,10.0,Variable,4.6,-,0.00,Rain,Light Rain,0,2013-04-27 18:53:00
3:53 PM,55.0,48.9,80,30.24,5.0,Calm,Calm,-,0.00,Rain,Light Rain,0,2013-04-27 19:53:00
4:53 PM,55.9,51.1,84,30.21,10.0,Calm,Calm,-,0.01,Rain,Light Rain,0,2013-04-27 20:53:00
5:53 PM,55.9,51.1,84,30.21,10.0,SE,3.5,-,0.00,Rain,Light Rain,140,2013-04-27 21:53:00
6:53 PM,55.9,51.1,84,30.19,10.0,SE,6.9,-,0.00,,Overcast,140,2013-04-27 22:53:00
7:53 PM,55.9,50.0,80,30.16,10.0,SE,5.8,-,N/A,,Overcast,140,2013-04-27 23:53:00
8:34 PM,55.4,50.0,82,30.16,10.0,Variable,4.6,-,N/A,,Overcast,0,2013-04-28 00:34:00
8:53 PM,55.0,51.1,86,30.15,10.0,SE,4.6,-,N/A,,Overcast,140,2013-04-28 00:53:00
9:38 PM,53.6,51.8,94,30.16,3.0,Variable,5.8,-,0.02,Rain,Light Rain,0,2013-04-28 01:38:00
9:53 PM,53.1,52.0,96,30.14,3.0,SE,4.6,-,0.03,Rain,Light Rain,130,2013-04-28 01:53:00
10:07 PM,53.6,51.8,94,30.15,4.0,Calm,Calm,-,0.00,Rain,Light Rain,0,2013-04-28 02:07:00
10:53 PM,53.1,52.0,96,30.12,4.0,Variable,4.6,-,0.01,Rain,Light Rain,0,2013-04-28 02:53:00
11:16 PM,53.6,51.8,94,30.13,3.0,Calm,Calm,-,0.01,Rain,Light Rain,0,2013-04-28 03:16:00
11:53 PM,53.1,52.0,96,30.12,7.0,SE,5.8,-,0.02,Rain,Light Rain,140,2013-04-28 03:53:00